AAL2203 KCLT-KJAX

Flight info

Callsign AAL2203
Flight time 1h 4m
Altitude 36000
Route ICONS5 NOOKS ESENT LUNNI2
Aircraft A320/M-SDE3FGHIRWY/LB1

Departure

Time 2026-05-03 23:44
Airport Charlotte Douglas International Airport (KCLT)

Arrival

Time 2026-05-04 00:49
Airport Jacksonville International Airport (KJAX)
Time Latitude Longitude Altitude Speed Heading
2026-05-03 23:10 35.22116 -80.93987 732 ft 0 kts 176°
2026-05-03 23:31 35.22120 -80.93987 732 ft 3 kts 176°
2026-05-03 23:32 35.22147 -80.93993 731 ft 4 kts 157°
2026-05-03 23:32 35.22168 -80.94010 730 ft 4 kts 121°
2026-05-03 23:32 35.22173 -80.94030 730 ft 0 kts 85°
2026-05-03 23:37 35.22174 -80.94022 731 ft 5 kts 85°
2026-05-03 23:38 35.22180 -80.93922 732 ft 3 kts 85°
2026-05-03 23:38 35.22182 -80.93883 732 ft 10 kts 85°
2026-05-03 23:38 35.22189 -80.93781 733 ft 13 kts 94°
2026-05-03 23:38 35.22108 -80.93718 733 ft 16 kts 174°
2026-05-03 23:39 35.21986 -80.93706 733 ft 19 kts 176°
2026-05-03 23:39 35.21849 -80.93697 734 ft 20 kts 177°
2026-05-03 23:39 35.21701 -80.93688 733 ft 23 kts 176°
2026-05-03 23:39 35.21533 -80.93671 733 ft 25 kts 176°
2026-05-03 23:40 35.21364 -80.93658 733 ft 23 kts 176°
2026-05-03 23:40 35.21197 -80.93642 733 ft 25 kts 175°
2026-05-03 23:40 35.21013 -80.93627 733 ft 28 kts 177°
2026-05-03 23:40 35.20815 -80.93614 733 ft 29 kts 176°
2026-05-03 23:41 35.20650 -80.93598 733 ft 9 kts 175°
2026-05-03 23:41 35.20578 -80.93590 733 ft 13 kts 175°
2026-05-03 23:41 35.20475 -80.93580 733 ft 16 kts 176°
2026-05-03 23:41 35.20355 -80.93572 733 ft 18 kts 175°
2026-05-03 23:42 35.20218 -80.93558 733 ft 21 kts 175°
2026-05-03 23:42 35.20109 -80.93522 733 ft 11 kts 126°
2026-05-03 23:42 35.20107 -80.93489 733 ft 4 kts 97°
2026-05-03 23:42 35.20108 -80.93445 734 ft 7 kts 62°
2026-05-03 23:43 35.20164 -80.93419 734 ft 10 kts
2026-05-03 23:43 35.20369 -80.93436 737 ft 63 kts 354°
2026-05-03 23:43 35.21028 -80.93499 734 ft 124 kts 357°
2026-05-03 23:43 35.22043 -80.93561 813 ft 161 kts 355°
2026-05-03 23:44 35.23184 -80.93675 1311 ft 167 kts 349°
2026-05-03 23:44 35.24205 -80.94246 1952 ft 163 kts 310°
2026-05-03 23:44 35.24656 -80.95492 2552 ft 165 kts 274°
2026-05-03 23:44 35.24338 -80.96896 2840 ft 187 kts 233°
2026-05-03 23:45 35.23154 -80.97729 3087 ft 215 kts 191°
2026-05-03 23:45 35.21567 -80.97858 3437 ft 242 kts 181°
2026-05-03 23:45 35.19804 -80.97809 3927 ft 263 kts 179°
2026-05-03 23:45 35.17943 -80.97706 4754 ft 270 kts 179°
2026-05-03 23:46 35.16049 -80.97602 5662 ft 275 kts 179°
2026-05-03 23:46 35.14146 -80.97515 6553 ft 278 kts 179°
2026-05-03 23:46 35.12199 -80.97444 7438 ft 282 kts 180°
2026-05-03 23:46 35.10224 -80.97384 8296 ft 285 kts 180°
2026-05-03 23:47 35.08226 -80.97330 9129 ft 289 kts 180°
2026-05-03 23:47 35.06202 -80.97281 9931 ft 293 kts 180°
2026-05-03 23:47 35.04119 -80.97235 10428 ft 310 kts 180°
2026-05-03 23:47 35.01884 -80.97193 10642 ft 332 kts 180°
2026-05-03 23:48 34.99528 -80.97150 11166 ft 343 kts 180°
2026-05-03 23:48 34.97124 -80.97103 11856 ft 347 kts 180°
2026-05-03 23:48 34.94695 -80.97048 12556 ft 351 kts 180°
2026-05-03 23:48 34.92238 -80.96989 13246 ft 355 kts 180°
2026-05-03 23:49 34.89758 -80.96930 13923 ft 358 kts 180°
2026-05-03 23:49 34.87254 -80.96873 14582 ft 362 kts 180°
2026-05-03 23:49 34.84727 -80.96820 15218 ft 365 kts 180°
2026-05-03 23:49 34.82209 -80.96767 15821 ft 368 kts 180°
2026-05-03 23:50 34.79637 -80.96711 16424 ft 372 kts 180°
2026-05-03 23:50 34.77883 -80.96697 16828 ft 374 kts 181°
2026-05-03 23:50 34.74414 -80.96770 17607 ft 378 kts 182°
2026-05-03 23:50 34.71769 -80.96877 18194 ft 382 kts 183°
2026-05-03 23:51 34.69101 -80.96994 18780 ft 385 kts 183°
2026-05-03 23:51 34.66415 -80.97105 19366 ft 389 kts 183°
2026-05-03 23:51 34.63698 -80.97208 19954 ft 392 kts 182°
2026-05-03 23:51 34.60961 -80.97318 20531 ft 395 kts 184°
2026-05-03 23:52 34.58202 -80.97512 21084 ft 399 kts 185°
2026-05-03 23:52 34.55425 -80.97775 21622 ft 402 kts 186°
2026-05-03 23:52 34.52627 -80.98072 22140 ft 405 kts 186°
2026-05-03 23:52 34.49809 -80.98377 22640 ft 408 kts 186°
2026-05-03 23:53 34.46971 -80.98675 23126 ft 411 kts 186°
2026-05-03 23:53 34.44107 -80.98964 23598 ft 414 kts 185°
2026-05-03 23:53 34.41228 -80.99239 24056 ft 417 kts 185°
2026-05-03 23:53 34.38320 -80.99507 24507 ft 420 kts 185°
2026-05-03 23:54 34.35399 -80.99768 24936 ft 423 kts 185°
2026-05-03 23:54 34.32452 -81.00032 25351 ft 425 kts 185°
2026-05-03 23:54 34.29494 -81.00303 25760 ft 428 kts 185°
2026-05-03 23:54 34.26515 -81.00581 26154 ft 431 kts 185°
2026-05-03 23:55 34.23514 -81.00864 26538 ft 433 kts 185°
2026-05-03 23:55 34.20539 -81.01144 26905 ft 436 kts 185°
2026-05-03 23:55 34.17507 -81.01428 27271 ft 438 kts 185°
2026-05-03 23:55 34.14457 -81.01715 27630 ft 441 kts 185°
2026-05-03 23:56 34.11394 -81.02003 27982 ft 443 kts 185°
2026-05-03 23:56 34.08308 -81.02293 28339 ft 446 kts 185°
2026-05-03 23:56 34.05209 -81.02582 28684 ft 448 kts 185°
2026-05-03 23:56 34.02092 -81.02872 29021 ft 450 kts 185°
2026-05-03 23:57 33.98963 -81.03150 29349 ft 453 kts 183°
2026-05-03 23:57 33.95803 -81.03078 29668 ft 456 kts 178°
2026-05-03 23:57 33.92628 -81.02865 29984 ft 458 kts 178°
2026-05-03 23:57 33.89436 -81.02654 30293 ft 460 kts 178°
2026-05-03 23:58 33.86229 -81.02445 30592 ft 462 kts 178°
2026-05-03 23:58 33.83009 -81.02239 30878 ft 464 kts 178°
2026-05-03 23:58 33.79778 -81.02034 31225 ft 465 kts 178°
2026-05-03 23:58 33.76553 -81.01832 31641 ft 464 kts 178°
2026-05-03 23:59 33.73376 -81.01633 32044 ft 463 kts 178°
2026-05-03 23:59 33.70164 -81.01431 32444 ft 462 kts 178°
2026-05-03 23:59 33.66960 -81.01227 32844 ft 461 kts 178°
2026-05-03 23:59 33.63758 -81.01023 33228 ft 460 kts 178°
2026-05-04 00:00 33.60565 -81.00818 33615 ft 459 kts 178°
2026-05-04 00:00 33.57372 -81.00613 33999 ft 459 kts 178°
2026-05-04 00:00 33.54186 -81.00410 34382 ft 458 kts 178°
2026-05-04 00:00 33.51008 -81.00210 34758 ft 457 kts 178°
2026-05-04 00:01 33.47828 -81.00006 35117 ft 457 kts 178°
2026-05-04 00:01 33.44664 -80.99805 35461 ft 456 kts 178°
2026-05-04 00:01 33.41491 -80.99609 35794 ft 455 kts 178°
2026-05-04 00:01 33.38329 -80.99415 36036 ft 456 kts 178°
2026-05-04 00:02 33.31987 -80.99018 36091 ft 456 kts 178°
2026-05-04 00:02 33.25644 -80.98614 36091 ft 456 kts 178°
2026-05-04 00:03 33.19305 -80.98215 36091 ft 456 kts 178°
2026-05-04 00:03 33.12962 -80.97814 36091 ft 456 kts 178°
2026-05-04 00:04 33.06626 -80.97417 36093 ft 456 kts 178°
2026-05-04 00:04 33.00319 -80.97018 36097 ft 457 kts 178°
2026-05-04 00:05 32.93970 -80.96622 36101 ft 457 kts 178°
2026-05-04 00:05 32.87614 -80.96226 36103 ft 457 kts 178°
2026-05-04 00:06 32.81261 -80.95831 36105 ft 457 kts 178°
2026-05-04 00:06 32.74899 -80.95438 36106 ft 457 kts 178°
2026-05-04 00:07 32.68547 -80.95039 36105 ft 457 kts 178°
2026-05-04 00:07 32.62193 -80.94636 36107 ft 457 kts 178°
2026-05-04 00:08 32.56903 -80.94310 36108 ft 457 kts 178°
2026-05-04 00:08 32.49514 -80.93853 36108 ft 457 kts 178°
2026-05-04 00:09 32.44200 -80.93521 35422 ft 459 kts 178°
2026-05-04 00:09 32.40981 -80.93321 33927 ft 465 kts 178°
2026-05-04 00:09 32.37764 -80.93124 33148 ft 455 kts 178°
2026-05-04 00:10 32.34648 -80.92934 32561 ft 441 kts 178°
2026-05-04 00:10 32.31621 -80.92751 32064 ft 432 kts 178°
2026-05-04 00:10 32.28624 -80.92570 31516 ft 431 kts 178°
2026-05-04 00:10 32.25637 -80.92385 30979 ft 429 kts 178°
2026-05-04 00:11 32.22700 -80.92201 30451 ft 427 kts 178°
2026-05-04 00:11 32.19739 -80.92014 29915 ft 425 kts 178°
2026-05-04 00:11 32.16788 -80.91938 29377 ft 423 kts 184°
2026-05-04 00:11 32.13884 -80.92383 28850 ft 419 kts 193°
2026-05-04 00:12 32.11071 -80.93242 28329 ft 417 kts 196°
2026-05-04 00:12 32.08277 -80.94120 27812 ft 415 kts 196°
2026-05-04 00:12 32.05494 -80.94989 27301 ft 413 kts 195°
2026-05-04 00:12 32.02726 -80.95849 26805 ft 411 kts 195°
2026-05-04 00:13 31.99964 -80.96709 26301 ft 408 kts 195°
2026-05-04 00:13 31.97224 -80.97563 25826 ft 406 kts 195°
2026-05-04 00:13 31.94500 -80.98411 25346 ft 404 kts 196°
2026-05-04 00:13 31.91791 -80.99258 24882 ft 402 kts 196°
2026-05-04 00:14 31.89090 -81.00100 24428 ft 400 kts 196°
2026-05-04 00:14 31.86407 -81.00935 23975 ft 398 kts 196°
2026-05-04 00:14 31.83740 -81.01771 23573 ft 395 kts 196°
2026-05-04 00:14 31.81089 -81.02609 23165 ft 392 kts 196°
2026-05-04 00:15 31.78465 -81.03444 22765 ft 389 kts 196°
2026-05-04 00:15 31.75862 -81.04274 22366 ft 386 kts 196°
2026-05-04 00:15 31.73279 -81.05099 21970 ft 383 kts 196°
2026-05-04 00:15 31.70716 -81.05919 21577 ft 381 kts 196°
2026-05-04 00:16 31.68165 -81.06733 21184 ft 378 kts 196°
2026-05-04 00:16 31.65626 -81.07542 20791 ft 376 kts 196°
2026-05-04 00:16 31.63108 -81.08339 20406 ft 374 kts 196°
2026-05-04 00:16 31.60600 -81.09130 20017 ft 372 kts 196°
2026-05-04 00:17 31.58107 -81.09917 19640 ft 370 kts 196°
2026-05-04 00:17 31.55634 -81.10698 19265 ft 367 kts 196°
2026-05-04 00:17 31.53174 -81.11477 18883 ft 365 kts 196°
2026-05-04 00:17 31.50759 -81.12242 18514 ft 363 kts 196°
2026-05-04 00:18 31.48325 -81.13012 18140 ft 361 kts 196°
2026-05-04 00:18 31.45871 -81.13786 17650 ft 360 kts 196°
2026-05-04 00:18 31.43496 -81.14534 17276 ft 357 kts 196°
2026-05-04 00:18 31.41107 -81.15284 16914 ft 354 kts 196°
2026-05-04 00:19 31.38732 -81.16031 16549 ft 352 kts 196°
2026-05-04 00:19 31.36371 -81.16775 16179 ft 350 kts 196°
2026-05-04 00:19 31.34025 -81.17517 15822 ft 348 kts 196°
2026-05-04 00:19 31.31684 -81.18256 15468 ft 347 kts 196°
2026-05-04 00:20 31.29360 -81.18988 15111 ft 345 kts 196°
2026-05-04 00:20 31.27047 -81.19715 14756 ft 343 kts 196°
2026-05-04 00:20 31.24749 -81.20437 14403 ft 341 kts 196°
2026-05-04 00:20 31.22463 -81.21150 14052 ft 339 kts 195°
2026-05-04 00:21 31.20160 -81.21752 13703 ft 338 kts 192°
2026-05-04 00:21 31.17856 -81.22249 13355 ft 336 kts 191°
2026-05-04 00:21 31.15583 -81.22690 13012 ft 335 kts 190°
2026-05-04 00:21 31.13263 -81.23129 12667 ft 333 kts 190°
2026-05-04 00:22 31.11010 -81.23565 12327 ft 331 kts 191°
2026-05-04 00:22 31.08745 -81.24016 11986 ft 329 kts 191°
2026-05-04 00:22 31.06492 -81.24474 11649 ft 328 kts 191°
2026-05-04 00:22 31.04252 -81.24934 11312 ft 326 kts 191°
2026-05-04 00:23 31.02027 -81.25394 10976 ft 324 kts 191°
2026-05-04 00:23 30.99806 -81.25855 10642 ft 323 kts 191°
2026-05-04 00:23 30.97602 -81.26314 10304 ft 321 kts 191°
2026-05-04 00:23 30.95434 -81.26762 10138 ft 310 kts 191°
2026-05-04 00:24 30.93346 -81.27194 10008 ft 300 kts 191°
2026-05-04 00:24 30.91314 -81.27615 9785 ft 293 kts 191°
2026-05-04 00:24 30.89320 -81.28028 9678 ft 291 kts 191°
2026-05-04 00:24 30.87326 -81.28441 9553 ft 291 kts 191°
2026-05-04 00:25 30.85339 -81.28849 9428 ft 290 kts 191°
2026-05-04 00:25 30.83352 -81.29262 9302 ft 289 kts 193°
2026-05-04 00:25 30.81473 -81.30042 9174 ft 286 kts 211°
2026-05-04 00:25 30.79934 -81.31479 9050 ft 284 kts 230°
2026-05-04 00:26 30.78887 -81.33399 8924 ft 281 kts 249°
2026-05-04 00:26 30.78425 -81.35598 8799 ft 280 kts 267°
2026-05-04 00:26 30.78475 -81.37856 8676 ft 280 kts 273°
2026-05-04 00:26 30.78576 -81.40083 8543 ft 279 kts 273°
2026-05-04 00:27 30.78676 -81.42336 8427 ft 279 kts 273°
2026-05-04 00:27 30.78774 -81.44588 8302 ft 278 kts 273°
2026-05-04 00:27 30.78871 -81.46834 8176 ft 278 kts 273°
2026-05-04 00:27 30.78968 -81.49079 8051 ft 277 kts 273°
2026-05-04 00:28 30.79062 -81.51316 7928 ft 277 kts 273°
2026-05-04 00:28 30.79156 -81.53553 7800 ft 276 kts 273°
2026-05-04 00:28 30.79250 -81.55781 7672 ft 276 kts 273°
2026-05-04 00:28 30.79345 -81.58008 7550 ft 275 kts 273°
2026-05-04 00:29 30.79442 -81.60226 7422 ft 275 kts 273°
2026-05-04 00:29 30.79535 -81.62445 7299 ft 274 kts 273°
2026-05-04 00:29 30.79628 -81.64655 7174 ft 274 kts 273°
2026-05-04 00:29 30.79720 -81.66851 7048 ft 273 kts 273°
2026-05-04 00:30 30.79814 -81.69069 6932 ft 273 kts 273°
2026-05-04 00:30 30.79906 -81.71269 6791 ft 272 kts 273°
2026-05-04 00:30 30.79996 -81.73462 6673 ft 272 kts 273°
2026-05-04 00:30 30.80086 -81.75656 6548 ft 271 kts 273°
2026-05-04 00:31 30.80176 -81.77846 6420 ft 271 kts 273°
2026-05-04 00:31 30.80265 -81.80027 6297 ft 270 kts 273°
2026-05-04 00:31 30.80356 -81.82207 6172 ft 269 kts 273°
2026-05-04 00:31 30.80445 -81.84380 6047 ft 269 kts 273°
2026-05-04 00:32 30.80533 -81.86524 5923 ft 268 kts 273°
2026-05-04 00:32 30.80622 -81.88717 5796 ft 268 kts 273°
2026-05-04 00:32 30.80707 -81.90857 5672 ft 267 kts 273°
2026-05-04 00:32 30.80794 -81.93013 5549 ft 267 kts 273°
2026-05-04 00:33 30.80880 -81.95167 5408 ft 266 kts 272°
2026-05-04 00:33 30.81045 -81.99465 5171 ft 265 kts 272°
2026-05-04 00:33 30.81127 -82.01609 5046 ft 265 kts 272°
2026-05-04 00:34 30.81210 -82.03750 4920 ft 264 kts 272°
2026-05-04 00:34 30.81092 -82.05876 4794 ft 264 kts 257°
2026-05-04 00:34 30.80395 -82.07840 4668 ft 265 kts 238°
2026-05-04 00:34 30.79176 -82.09437 4544 ft 266 kts 219°
2026-05-04 00:35 30.77561 -82.10490 4418 ft 267 kts 200°
2026-05-04 00:35 30.75732 -82.10868 4293 ft 269 kts 181°
2026-05-04 00:35 30.73883 -82.10522 4167 ft 271 kts 161°
2026-05-04 00:35 30.72230 -82.09476 4041 ft 272 kts 142°
2026-05-04 00:36 30.70967 -82.07842 3933 ft 273 kts 121°
2026-05-04 00:36 30.70263 -82.05832 3965 ft 274 kts 101°
2026-05-04 00:36 30.70167 -82.03626 3973 ft 274 kts 83°
2026-05-04 00:36 30.70389 -82.01423 3973 ft 275 kts 86°
2026-05-04 00:37 30.70323 -81.99206 3973 ft 275 kts 98°
2026-05-04 00:37 30.69842 -81.97059 3975 ft 275 kts 111°
2026-05-04 00:37 30.68990 -81.95077 3974 ft 274 kts 123°
2026-05-04 00:37 30.67798 -81.93357 3960 ft 274 kts 138°
2026-05-04 00:38 30.66147 -81.92356 3829 ft 268 kts 171°
2026-05-04 00:38 30.64304 -81.92346 3702 ft 265 kts 195°
2026-05-04 00:38 30.62633 -81.93209 3580 ft 263 kts 215°
2026-05-04 00:38 30.61175 -81.94479 3458 ft 262 kts 220°
2026-05-04 00:39 30.59752 -81.95800 3329 ft 262 kts 219°
2026-05-04 00:39 30.58262 -81.97020 3200 ft 262 kts 214°
2026-05-04 00:39 30.56703 -81.98112 3079 ft 262 kts 211°
2026-05-04 00:39 30.55092 -81.99100 2947 ft 262 kts 208°
2026-05-04 00:40 30.53468 -81.99996 2831 ft 261 kts 206°
2026-05-04 00:40 30.51801 -82.00836 2710 ft 261 kts 204°
2026-05-04 00:40 30.50108 -82.01601 2579 ft 261 kts 201°
2026-05-04 00:40 30.48395 -82.02292 2457 ft 261 kts 199°
2026-05-04 00:41 30.46663 -82.02896 2326 ft 258 kts 197°
2026-05-04 00:41 30.44952 -82.03385 2196 ft 248 kts 188°
2026-05-04 00:41 30.43307 -82.03049 2070 ft 241 kts 149°
2026-05-04 00:41 30.42254 -82.01641 1941 ft 230 kts 108°
2026-05-04 00:42 30.42264 -81.99904 1966 ft 209 kts 69°
2026-05-04 00:42 30.42678 -81.98380 1967 ft 191 kts 85°
2026-05-04 00:42 30.42443 -81.96973 1990 ft 166 kts 105°
2026-05-04 00:42 30.42256 -81.95703 1972 ft 155 kts 92°
2026-05-04 00:43 30.42332 -81.94475 1969 ft 151 kts 79°
2026-05-04 00:43 30.42565 -81.93293 1970 ft 150 kts 73°
2026-05-04 00:43 30.42864 -81.92137 1919 ft 149 kts 70°
2026-05-04 00:43 30.43190 -81.90996 1873 ft 149 kts 69°
2026-05-04 00:44 30.43523 -81.89878 1873 ft 149 kts 69°
2026-05-04 00:44 30.43871 -81.88732 1874 ft 149 kts 69°
2026-05-04 00:44 30.44214 -81.87614 1874 ft 149 kts 69°
2026-05-04 00:44 30.44566 -81.86467 1875 ft 149 kts 69°
2026-05-04 00:45 30.44909 -81.85352 1873 ft 149 kts 69°
2026-05-04 00:45 30.45255 -81.84224 1874 ft 149 kts 69°
2026-05-04 00:45 30.45602 -81.83096 1874 ft 149 kts 69°
2026-05-04 00:45 30.45949 -81.81969 1874 ft 148 kts 69°
2026-05-04 00:46 30.46296 -81.80839 1859 ft 149 kts 69°
2026-05-04 00:46 30.46643 -81.79708 1741 ft 149 kts 69°
2026-05-04 00:46 30.46990 -81.78578 1574 ft 148 kts 69°
2026-05-04 00:46 30.47336 -81.77453 1387 ft 148 kts 69°
2026-05-04 00:47 30.47680 -81.76332 1199 ft 147 kts 69°
2026-05-04 00:47 30.48023 -81.75213 1004 ft 147 kts 69°
2026-05-04 00:47 30.48364 -81.74101 811 ft 146 kts 69°
2026-05-04 00:47 30.48704 -81.72991 629 ft 146 kts 69°
2026-05-04 00:48 30.49043 -81.71887 424 ft 145 kts 69°
2026-05-04 00:48 30.49380 -81.70788 234 ft 144 kts 69°
2026-05-04 00:48 30.49709 -81.69712 51 ft 143 kts 70°
2026-05-04 00:48 30.49978 -81.68825 36 ft 76 kts 71°
2026-05-04 00:49 30.49998 -81.68493 38 ft 29 kts 131°
2026-05-04 00:49 30.49902 -81.68455 36 ft 9 kts 172°
2026-05-04 00:49 30.49823 -81.68459 36 ft 14 kts 191°
2026-05-04 00:49 30.49714 -81.68485 36 ft 17 kts 191°
2026-05-04 00:50 30.49586 -81.68512 37 ft 19 kts 189°
2026-05-04 00:50 30.49447 -81.68541 39 ft 21 kts 191°
2026-05-04 00:50 30.49395 -81.68558 38 ft 0 kts 201°
2026-05-04 00:50 30.49395 -81.68559 38 ft 0 kts 201°